Location: Ch?enovice
(49.7164°N, 15.2160°E)
Time: 17:27:33
(UTC+00:00)

SL-4 R/B - Pass Details

Date: 23 May 2024
Orbit: 412 x 601 km, 51.6° (Epoch: 13 June)

Event Time Altitude Azimuth Distance (km) Brightness Sun altitude
Exits shadow 01:11:50 - 162° (SSE) 1,958 4.5 -13.5°
Reaches altitude 10° 01:12:15 10° 157° (SSE) 1,885 4.4 -13.4°
Maximum altitude 01:14:09 13° 131° (SE) 1,733 4.5 -13.3°
Drops below altitude 10° 01:16:05 10° 105° (ESE) 1,923 5.0 -13.1°
Sets 01:19:35 0° 77° (ENE) 2,850 6.4 -12.8°
